WN8IZV Weather Reports


Display with metric or nautical units.
time (UTC)temp
F
wind
direction
speed
MPH
gust
MPH
rain 1hr
in
rain 24hr
in
rain mn
in
humidity
%
barometer
mb
20260509114522 51 183 1.0 4.0 0.00 0.00 0.00 76 1005.7
20260509113020 50 232 2.0 7.0 0.00 0.00 0.00 76 1005.6
20260509111519 50 212 1.0 4.0 0.00 0.00 0.00 76 1005.6
20260509110017 49 199 1.0 4.0 0.00 0.00 0.00 75 1005.6
20260509104514 46 207 0.0 0.0 0.00 0.00 0.00 75 1005.6
20260509103013 46 207 0.0 1.0 0.00 0.00 0.00 75 1005.4
20260509101511 45 207 0.0 0.0 0.00 0.00 0.00 74 1005.2
20260509100009 45 207 0.0 0.0 0.00 0.00 0.00 74 1005.3
20260509094506 46 207 0.0 0.0 0.00 0.00 0.00 74 1005.4
20260509093002 47 207 0.0 0.0 0.00 0.00 0.00 74 1005.3
20260509091600 47 214 0.0 0.0 0.00 0.00 0.00 74 1005.5
20260509090057 47 214 0.0 0.0 0.00 0.00 0.00 74 1005.7
20260509084558 46 217 0.0 0.0 0.00 0.00 0.00 74 1005.8
20260509083051 46 219 0.0 0.0 0.00 0.00 0.00 74 1005.8
20260509081547 47 219 0.0 0.0 0.00 0.00 0.00 74 1005.8
20260509080105 48 219 0.0 0.0 0.00 0.00 0.00 74 1005.8
20260509074543 48 167 0.0 1.0 0.00 0.00 0.00 73 1005.8
20260509073117 48 128 0.0 0.0 0.00 0.00 0.00 73 1005.9
20260509071536 48 128 0.0 0.0 0.00 0.00 0.00 73 1006.1
20260509070033 48 165 0.0 0.0 0.00 0.00 0.00 73 1006.1
20260509064529 48 167 0.0 0.0 0.00 0.00 0.00 72 1006.3
20260509063030 49 179 0.0 0.0 0.00 0.00 0.00 72 1006.5
20260509061524 48 174 0.0 0.0 0.00 0.00 0.00 72 1006.6
20260509060020 48 174 0.0 0.0 0.00 0.00 0.00 72 1006.8
20260509054527 49 174 0.0 0.0 0.00 0.00 0.00 72 1007.0
20260509053013 50 174 0.0 0.0 0.00 0.00 0.00 72 1007.2
20260509051506 51 198 0.0 0.0 0.00 0.00 0.00 72 1007.2
20260509050002 52 199 0.0 1.0 0.00 0.00 0.00 71 1007.3
20260509044558 52 174 0.0 1.0 0.00 0.03 0.00 71 1007.5
20260509043058 53 202 0.0 1.0 0.00 0.03 0.00 71 1007.5
20260509041552 53 204 0.0 2.0 0.00 0.03 0.00 71 1007.4
20260509040100 53 228 0.0 2.0 0.00 0.03 0.00 71 1007.5
20260509034544 54 198 0.0 1.0 0.00 0.03 0.03 71 1007.6
20260509033043 55 224 0.0 2.0 0.00 0.03 0.03 71 1007.6
20260509031542 55 216 0.0 4.0 0.00 0.03 0.03 71 1007.7
20260509030043 56 239 1.0 3.0 0.00 0.03 0.03 70 1007.7
20260509024541 55 201 0.0 5.0 0.00 0.03 0.03 70 1007.9
20260509023036 55 231 1.0 4.0 0.00 0.03 0.03 70 1007.8
20260509021533 55 224 2.0 5.0 0.00 0.03 0.03 70 1007.6
20260509020033 56 162 1.0 5.0 0.00 0.03 0.03 69 1007.6
20260509014529 56 198 1.0 5.0 0.00 0.03 0.03 69 1007.4
20260509013042 56 178 2.0 4.0 0.00 0.03 0.03 69 1007.2
20260509011524 57 205 1.0 6.0 0.00 0.03 0.03 69 1007.1
20260509010025 57 208 1.0 7.0 0.00 0.03 0.03 69 1007.0
20260509004534 59 210 3.0 9.0 0.00 0.03 0.03 69 1006.9
20260509003017 59 225 0.0 4.0 0.00 0.03 0.03 69 1006.7
20260509001515 60 204 1.0 5.0 0.00 0.03 0.03 69 1006.8
20260509000012 60 222 2.0 6.0 0.00 0.03 0.03 69 1006.8
20260508234510 60 195 2.0 4.0 0.00 0.03 0.03 68 1006.8
20260508233008 61 160 2.0 6.0 0.00 0.03 0.03 68 1006.9
20260508231607 61 203 3.0 8.0 0.00 0.03 0.03 68 1007.0
20260508230008 61 207 3.0 10.0 0.00 0.03 0.03 68 1006.9
20260508224559 63 222 4.0 10.0 0.00 0.03 0.03 69 1007.0
20260508223057 63 186 3.0 14.0 0.00 0.03 0.03 69 1007.0
20260508221555 63 160 4.0 10.0 0.00 0.03 0.03 69 1007.1
20260508220053 63 179 3.0 8.0 0.00 0.03 0.03 69 1007.1
20260508214548 62 178 1.0 3.0 0.00 0.03 0.03 69 1007.2
20260508213040 62 49 1.0 5.0 0.00 0.03 0.03 69 1007.3
20260508211537 60 198 1.0 4.0 0.00 0.03 0.03 69 1007.6
20260508210039 60 179 1.0 4.0 0.00 0.03 0.03 68 1007.8
20260508204531 61 55 1.0 4.0 0.00 0.03 0.03 68 1007.9
20260508203026 61 67 2.0 7.0 0.00 0.03 0.03 69 1008.3
20260508201523 61 128 3.0 6.0 0.00 0.03 0.03 68 1008.6
20260508200021 61 84 1.0 8.0 0.00 0.03 0.03 68 1008.9
20260508194516 62 188 2.0 7.0 0.00 0.03 0.03 68 1009.2
20260508193011 62 200 1.0 9.0 0.00 0.03 0.03 69 1009.4
20260508191508 61 162 1.0 5.0 0.00 0.03 0.03 69 1009.4
20260508190105 62 58 2.0 8.0 0.00 0.03 0.03 69 1009.6
20260508184502 62 134 1.0 6.0 0.00 0.03 0.03 69 1009.8
20260508183158 61 153 2.0 9.0 0.00 0.03 0.03 69 1009.8
20260508181606 60 67 1.0 6.0 0.00 0.03 0.03 69 1010.2
20260508180052 61 58 1.0 5.0 0.00 0.03 0.03 69 1010.3
20260508174547 61 208 2.0 6.0 0.00 0.03 0.03 70 1010.5
20260508173046 60 94 1.0 8.0 0.00 0.03 0.03 70 1010.9
20260508171538 60 189 2.0 4.0 0.00 0.03 0.03 70 1011.2
20260508170039 59 75 1.0 4.0 0.00 0.03 0.03 70 1011.2
20260508164532 59 160 1.0 6.0 0.00 0.03 0.03 70 1011.4
20260508163029 58 111 2.0 5.0 0.00 0.03 0.03 70 1011.6
20260508161525 58 65 2.0 7.0 0.00 0.03 0.03 71 1011.7
20260508160023 58 159 1.0 4.0 0.00 0.03 0.03 71 1011.8
20260508154522 58 204 2.0 4.0 0.00 0.03 0.03 71 1011.9
20260508153016 57 141 0.0 5.0 0.00 0.03 0.03 71 1012.0
20260508151514 56 346 0.0 3.0 0.00 0.03 0.03 71 1012.0
20260508150013 56 62 0.0 4.0 0.00 0.03 0.03 72 1012.1
20260508144510 55 169 1.0 4.0 0.00 0.03 0.03 72 1012.4
20260508143001 53 59 1.0 4.0 0.00 0.03 0.03 72 1012.3
20260508141608 53 13 0.0 2.0 0.00 0.03 0.03 72 1012.5
20260508140056 52 141 0.0 2.0 0.00 0.03 0.03 72 1012.6
20260508134557 51 183 1.0 4.0 0.00 0.03 0.03 73 1012.7
20260508133110 50 122 1.0 3.0 0.00 0.03 0.03 73 1012.7
20260508131547 49 172 0.0 3.0 0.00 0.03 0.03 73 1012.7
20260508130141 49 77 1.0 4.0 0.00 0.03 0.03 73 1012.7
20260508124539 48 193 0.0 3.0 0.00 0.03 0.03 73 1012.5
20260508123045 47 146 0.0 2.0 0.00 0.03 0.03 73 1012.5
20260508121537 46 8 0.0 1.0 0.00 0.03 0.03 73 1012.5
20260508120032 44 356 0.0 1.0 0.00 0.03 0.03 73 1012.3